Terminal Aerodrome Forecast
Issued by NWS Anchorage, AK

Home | Current Version | Previous Version | Text Only | Print | Product List | Glossary On
Versions: 1 2 3 4 5 6 7 8 9 10 11 12 13 14 15 16 17 18 19 20 21 22 23 24 25 26 27 28 29 30 31 32 33 34 35 36 37 38 39 40 41 42 43 44 45 46 47 48 49 50
000
FTAK31 PANC 022334
TAFANC
TAF
PANC 022334Z 0300/0406 02006KT P6SM SCT060 OVC100
     FM030600 01005KT P6SM VCSH SCT040 BKN060 OVC100 WS020/13025KT
     FM031500 16007KT P6SM -SHRASN SCT030 OVC050
     FM040000 15011KT P6SM VCSH SCT040 OVC060=

USA.gov is the U.S. government's official web portal to all federal, state and local government web resources and services.